Home > Weather > Caversham > Past weeks

Flag for United Kingdom Weather for the Past 2 Weeks in Caversham, England, United Kingdom

Now
38 °F

Chilly.


Feels Like: 29 °F
Forecast: 35 / 42 °F
Wind: 15 mph from East

Location: Benson

Current Time: Feb 13, 2016 at 6:59:57 AM

Latest Report: Feb 13, 2016 at 6:00 AM


Visibility: 7 mi

Pressure: 29.15 "Hg

Humidity: 84%

Dew point: 33 °F

Location of CavershamLocation

Historic Weather in Caversham — Graph

°F

Caversham Temperature Yesterday

Maximum temperature yesterday: 45 °F (at 12:00 PM)
Minimum temperature yesterday: 36 °F (at 8:00 AM)
Average temperature yesterday: 40 °F

High & Low Weather Summary for the Past Weeks

 TemperatureHumidityPressure
High56 °F (Feb 1, 3:00 PM)99% (Feb 11, 9:00 AM)30.32 "Hg (Feb 11, 9:00 AM)
Low23 °F (Feb 11, 7:00 AM)46% (Feb 2, 2:00 PM)29.00 "Hg (Feb 8, 8:00 AM)
Average45 °F80%29.67 "Hg
* Reported Jan 29 5:00 AM — Feb 13 5:00 AM, Caversham, Weather by CustomWeather, © 2016

Note: Actual official high and low records may vary slightly from our data, if they occured in-between our weather recording intervals... More about our weather records

Advertising

Caversham Weather History for the Previous 24 Hours

 ConditionsComfort  
Time TempWeatherWind HumidityBarometerVisibility
5:00 AM
Sat, Feb 13
38 °FChilly.16 mph83%29.18 "Hg7 mi
4:00 AM37 °FChilly.13 mph86%29.21 "Hg6 mi
3:00 AM38 °FChilly.14 mph86%29.26 "Hg6 mi
12:00 AM39 °FChilly.7 mph86%29.32 "Hg6 mi
10:00 PM
Fri, Feb 12
40 °FChilly.5 mph83%29.38 "Hg9 mi
9:00 PM40 °FChilly.5 mph83%29.38 "Hg9 mi
8:00 PM39 °FChilly.3 mph85%29.38 "Hg11 mi
7:00 PM39 °FChilly.3 mph82%29.38 "Hg11 mi
6:00 PM38 °FChilly.6 mph85%29.38 "Hg9 mi
5:00 PM40 °FOvercast.8 mph77%29.35 "Hg14 mi
4:00 PM42 °FPartly sunny.8 mph73%29.35 "Hg16 mi
3:00 PM42 °FPartly sunny.12 mph74%29.32 "Hg16 mi
2:00 PM43 °FScattered clouds.12 mph73%29.32 "Hg19 mi
1:00 PM44 °FScattered clouds.14 mph71%29.32 "Hg19 mi
12:00 PM45 °FPassing clouds.14 mph71%29.32 "Hg19 mi
11:00 AM43 °FScattered clouds.13 mph83%29.35 "Hg16 mi
10:00 AM42 °FPassing clouds.14 mph86%29.35 "Hg16 mi
9:00 AM38 °FScattered clouds.12 mph89%29.35 "Hg16 mi
8:00 AM36 °FScattered clouds.12 mph92%29.35 "Hg16 mi
7:00 AM36 °FPassing clouds.13 mph92%29.35 "Hg9 mi
6:00 AM37 °FPassing clouds.12 mph92%29.38 "Hg16 mi
Weather by CustomWeather, © 2016

See weather overviewHow to use our weather pages